Tracking 29493 objects as of 8-Sep-2024
HD Live streaming from Space Station
objects crossing your sky now

FENGYUN 1C DEB

Track FENGYUN 1C DEB now!
10-day predictions


NORAD ID: 30403
Int'l Code: 1999-025ADS
Perigee: 790.0 km
Apogee: 910.4 km
Inclination: 99.1 °
Period: 101.8 minutes
Semi major axis: 7221 km
RCS: 0.0223 m2 (small)
Launch date: May 10, 1999
Source: People's Republic of China (PRC)
Launch site: Taiyaun Space Center, China (TSC)

Note: This is SATELLITE DEBRIS
Your satellite tracking list
Your tracking list is empty




NASA's NSSDC Master Catalog

Two Line Element Set (TLE):
1 30403U 99025ADS 24251.71253769  .00012075  00000-0  60721-2 0  9992
2 30403  99.0820 313.7426 0083408 252.2810 106.9245 14.14774668902690
Source of the keplerian elements: AFSPC